Regional Weather Roundup
Issued by NWS Charleston, SC

Current Version | Previous Version | Text Only | Print | Product List | Glossary Off
Versions: 1 2 3 4 5 6 7 8 9 10 11 12 13 14 15 16 17 18 19 20 21 22 23 24 25 26 27 28 29 30 31 32 33 34 35 36 37 38 39 40 41 42 43 44 45 46 47 48 49 50

000
ASUS42 KCHS 181725
RWRCHS

REGIONAL WEATHER ROUNDUP
NATIONAL WEATHER SERVICE CHARLESTON SC
1200 PM EST THU DEC 18 2014

NOTE: "FAIR" INDICATES FEW OR NO CLOUDS BELOW 12,000 FEET WITH NO
SIGNIFICANT WEATHER AND/OR OBSTRUCTIONS TO VISIBILITY.

NOT ALL STATIONS ARE QUALITY CONTROLLED BY THE NATIONAL
WEATHER SERVICE. USE DATA WITH CAUTION...ESPECIALLY
DEWPOINT OBSERVATIONS.

SCZ027-030-031-034>040-042>050-181800-
...SOUTHEAST SOUTH CAROLINA...

CITY           SKY/WX    TMP DP  RH WIND       PRES   REMARKS
N CHARLESTON   PTSUNNY   59  42  53 CALM      30.14F
WATERFRONT PRK   N/A     59 N/A N/A SE5         N/A
MOUNT PLEASANT LGT RAIN  61  43  51 SE5       30.13F
PINOPOLIS        N/A     55  45  67 VRB2      30.07F
MONCKS CORNER  FAIR      61  43  51 CALM      30.13F
SUMMERVILLE    FAIR      61  45  55 CALM      30.13F
BEAUFORT MCAS  MOSUNNY   57  42  57 CALM      30.14F
BEAUFORT ARPT  FAIR      55  43  62 CALM      30.13F
HILTON HEAD IS MOSUNNY   55  43  62 CALM      30.15F
WALTERBORO     SUNNY     59  39  47 CALM      30.15F
ALLENDALE      FAIR      57  43  58 CALM      30.13F

...SOUTHERN MIDLANDS AND PEE DEE...

CITY           SKY/WX    TMP DP  RH WIND       PRES   REMARKS
GEORGETOWN     NOT AVBL
KINGSTREE      NOT AVBL
ORANGEBURG     SUNNY     55  37  50 VRB6      30.14F
BARNWELL       FAIR      57  43  58 CALM      30.13F
AIKEN          FAIR      55  37  50 E3        30.16F
MANNING        NOT AVBL
COLUMBIA       MOSUNNY   56  28  34 E7        30.15F
SUMTER         SUNNY     56  26  31 E9        30.14F
FLORENCE       SUNNY     55  30  38 E5        30.16F
MYRTLE BEACH   SUNNY     55  30  38 N9        30.17F
N MYRTLE BEACH SUNNY     55  30  38 NE8       30.15F

$$

GAZ063-065-086>088-099>101-113>116-118-119-134>141-150-181800-
...SOUTHEAST GEORGIA...

CITY           SKY/WX    TMP DP  RH WIND       PRES   REMARKS
SAVANNAH ARPT  PTSUNNY   56  39  53 NW6       30.15F
HUNTER AAF     MOSUNNY   55  39  56 NW3       30.13F
FORT STEWART   PTSUNNY   53  39  59 W3        30.14F
STATESBORO     SUNNY     55  41  59 NW3       30.14F
SYLVANIA       SUNNY     56  44  64 CALM      30.14F
CLAXTON        FAIR      55  43  62 CALM      30.15F

...CSRA...CENTRAL AND FAR SOUTHEAST GEORGIA...

CITY           SKY/WX    TMP DP  RH WIND       PRES   REMARKS
THOMSON        SUNNY     56  41  56 CALM      30.18F
AUGUSTA-BUSH   SUNNY     55  39  54 CALM      30.16F
AUGUSTA-DANIEL SUNNY     55  39  54 CALM      30.15F
SWAINSBORO     FAIR      55  43  62 CALM      30.15F
VIDALIA        SUNNY     55  39  54 W3        30.15F
EASTMAN        FAIR      56  39  52 CALM      30.18F
HAZLEHURST     FAIR      58  41  52 CALM      30.14F
ALMA           PTSUNNY   54  38  54 W3        30.16F
WAYCROSS       CLOUDY    58  42  55 CALM      30.16F
JESUP          FAIR      59  43  55 NW5       30.15F
BAXLEY         FAIR      55  39  54 NW3       30.15F
BRUNSWICK      CLOUDY    57  37  47 SW8       30.15F
SAINT SIMONS   CLOUDY    54  41  61 SW6       30.16F

$$

SCZ027-028-034-036>038-045-046-048>050-GAZ119-141-181800-
...LAKE AND SUPPLEMENTAL COASTAL OBSERVATIONS...

STATION/POSITION TIME  TEMP    WIND        PRES    WAVE   SWELL
                       AIR SEA DIR/SP/G            HT/PER HT/PER/DIR
                 (UTC) (F)     (DEG/KT/KT) (MB)    (FT/S) (FT/S/D)
UPR LAKE MARION  NOT AVBL
WINYAH BAY       1700   52      50/ 11     1021.0S
LAKE MURRAY      1600   52      90/  7/  8 1021.0F
ACE BASIN NERRS  1700   56     160/  1     1020.0F
FORT PULASKI     1700   50 56  270/  5/  6 1021.1F
SAPELO ISLAND    1700   53     250/  3     1021.0F

$$

ANZ835-935-AMZ111-154-330-350-352-354-370-450-454-472-181800-
...C-MAN AND BUOY OBSERVATIONS...

STATION/POSITION TIME  TEMP    WIND        PRES    WAVE   SWELL
                       AIR SEA DIR/SP/G            HT/PER HT/PER/DIR
                 (UTC) (F)     (DEG/KT/KT) (MB)    (FT/S) (FT/S/D)
BUOY 41004       1700   60 72  310/  4/  6 1020.4F   1/10   2/10
BUOY 41008       1700   50 57  280/  4/  6 1021.5F   1/10   2/100/10
FOLLY BEACH CMAN 1700   55      60/  6/  6 1021.1F
CAPERS NEARSHORE 1600   56      60/  6/  8   N/A
FRIPP NEARSHORE  NOT AVBL


STATION/POSITION TIME  TEMP    WIND        PRES    WAVE   SWELL
                       AIR SEA DIR/SP/G            HT/PER HT/PER/DIR
                 (UTC) (F)     (DEG/KT/KT) (MB)    (FT/S) (FT/S/D)
5E ST. MARYS GA  1700      61                N/A     1/10
FRYING PAN BUOY  1700   55 64   40/ 10/ 12 1021.3F   3/ 4   2/ 20/ 5
BUOY 41025       1700   48                 1020.6F   3/ 5
CAPE LOOKOUT NC  1700   48      10/ 10/ 13 1020.5F
BUOY 41002       1614   69 72  310/ 10/ 14 1018.9F   3/ 6   2/270/ 6
BUOY 41010       1700   72 76  270/ 10/ 12 1020.1F   2/10   2/110/10
ST AUGUSTINE FL  1700   58      10/  6/  7 1022.1F


$$


USA.gov is the U.S. government's official web portal to all federal, state and local government web resources and services.